Location: Castelbiague
(43.0361°N, 0.9246°E)
Time: 21:43:41
(UTC+00:00)

USA 215 - Pass Details

Date: 25 October 2021
Orbit: 1099 x 1109 km, 123.0° (Epoch: 20 November)

Event Time Altitude Azimuth Distance (km) Brightness Sun altitude
Exits shadow 20:11:30 26° 4° (N) 2,023 4.7 -35.7°
Maximum altitude 20:12:10 26° 355° (N) 2,003 4.7 -35.8°
Drops below altitude 10° 20:17:23 10° 301° (WNW) 2,964 6.2 -36.7°
Sets 20:20:16 0° 290° (WNW) 3,923 7.1 -37.2°
